Weather reports worldwide

Advertisment
Metz-Nancy-Lorraine, France (7093): temperature & dewpoint: 14.06.2018 11:00:00 - 20.06.2018 11:00:00 (CEST)Metz-Nancy-Lorraine, France (7093): wind speed & gusts: 14.06.2018 11:00:00 - 20.06.2018 11:00:00 (CEST)Metz-Nancy-Lorraine, France (7093): wind direction: 14.06.2018 11:00:00 - 20.06.2018 11:00:00 (CEST)Metz-Nancy-Lorraine, France (7093): reduced air pressure: 14.06.2018 11:00:00 - 20.06.2018 11:00:00 (CEST)Metz-Nancy-Lorraine, France (7093): visibility: 14.06.2018 11:00:00 - 20.06.2018 11:00:00 (CEST)Metz-Nancy-Lorraine, France (7093): sunshine duration: 14.06.2018 11:00:00 - 20.06.2018 11:00:00 (CEST)Metz-Nancy-Lorraine, France (7093): precipitation: 14.06.2018 11:00:00 - 20.06.2018 11:00:00 (CEST)
Date & Time tt [°C] td [°C] ff [km/h] ff [kn] fx [km/h] fx [kn] dd ppp [hPa] vv [km] sd [min] rr [mm]
20.06.2018 11:00:00 24,9 16,9 5 3 21 12 SE 1021,2 19 60 0,0
20.06.2018 10:00:00 23,2 16,0 10 5 18 10 ESE 1021,7 3,3 60 0,0
20.06.2018 09:00:00 20,2 16,4 8 4 13 7 NE 1022,2 15 60 0,0
20.06.2018 08:00:00 17,5 15,8 5 3 8 5 N 1022,7 9 60 0,0
20.06.2018 07:00:00 15,2 14,2 5 3 8 4 NNW 1022,9 0,6 60 0,0
20.06.2018 06:00:00 14,8 14,0 6 4 10 6 NE 1023,0 0,4 1 0,0
20.06.2018 05:00:00 14,9 13,9 5 3 7 4 NE 1023,1 6 0 0,0
20.06.2018 04:00:00 15,7 14,2 5 3 6 4 NNE 1023,6 12 0 0,0
20.06.2018 03:00:00 16,1 14,3 6 3 9 5 NNE 1023,7 14 0 0,0
20.06.2018 02:00:00 16,6 14,1 4 2 5 3 NNE 1024,1 26 0 0,0
20.06.2018 01:00:00 17,2 14,3 4 2 5 3 N 1024,2 43 0 0,0
20.06.2018 00:00:00 17,7 14,4 0 0 11 6 N 1024,3 48 0 0,0
19.06.2018 23:00:00 17,9 14,6 8 4 11 6 N 1024,3 57 0 0,0
19.06.2018 22:00:00 18,5 14,8 5 3 10 5 NNW 1024,1 48 11 0,0
19.06.2018 21:00:00 20,5 15,1 9 5 21 11 NW 1023,8 20 60 0,0
19.06.2018 20:00:00 21,9 14,8 14 8 25 13 NW 1023,8 19 60 0,0
19.06.2018 19:00:00 22,8 14,6 14 7 24 13 WNW 1024,0 18 55 0,0
19.06.2018 18:00:00 22,3 15,4 9 5 27 14 NW 1024,3 20 4 0,0
19.06.2018 17:00:00 22,9 15,5 11 6 21 12 NNW 1024,5 47 35 0,0
19.06.2018 16:00:00 22,9 15,2 9 5 21 11 N 1024,6 20 17 0,0
19.06.2018 15:00:00 22,7 15,0 9 5 17 9 NW 1024,9 58 14 0,0
19.06.2018 14:00:00 21,7 15,1 6 3 16 9 NNW 1025,1 18 5 0,0
19.06.2018 13:00:00 20,7 14,3 5 3 16 9 WSW 1025,4 20 5 0,0
19.06.2018 12:00:00 20,1 14,5 7 4 22 12 WSW 1025,4 20 21 0,0
19.06.2018 11:00:00 18,8 13,9 13 7 22 12 WSW 1025,7 20 14 0,0
19.06.2018 10:00:00 17,1 13,4 13 7 23 12 NNW 1026,2 20 39 0,0
19.06.2018 09:00:00 17,4 13,7 16 8 25 13 NW 1025,9 20 26 0,0
19.06.2018 08:00:00 16,9 14,4 13 7 20 11 WNW 1025,7 20 60 0,0
19.06.2018 07:00:00 15,8 14,3 6 3 10 5 SW 1025,3 33 50 0,0
19.06.2018 06:00:00 14,0 13,2 9 5 12 6 SSW 1025,3 19 1 0,0
19.06.2018 05:00:00 14,2 12,9 8 4 15 8 SSW 1024,8 16 0 0,0
19.06.2018 04:00:00 14,4 12,9 11 6 18 10 SSW 1024,8 31 0 0,0
19.06.2018 03:00:00 15,6 13,6 10 5 19 10 SW 1024,4 39 0 0,0
19.06.2018 02:00:00 15,1 13,5 16 8 19 11 S 1024,2 34 0 0,0
19.06.2018 01:00:00 15,6 13,4 15 8 19 11 SSW 1024,0 46 0 0,0
19.06.2018 00:00:00 15,8 13,5 13 7 18 10 SSW 1024,1 47 0 0,0
18.06.2018 23:00:00 16,6 13,7 13 7 18 10 SSW 1024,1 49 0 0,0
18.06.2018 22:00:00 17,1 13,8 14 7 17 9 SSW 1023,5 54 13 0,0
18.06.2018 21:00:00 19,4 14,4 13 7 24 13 SW 1022,9 23 60 0,0
18.06.2018 20:00:00 20,7 14,6 15 8 23 12 W 1022,5 41 29 0,0
18.06.2018 19:00:00 20,4 15,0 13 7 25 14 W 1022,7 36 3 0,0
18.06.2018 18:00:00 20,1 14,0 12 7 21 11 WSW 1022,8 19 0 0,0
18.06.2018 17:00:00 20,0 13,9 16 9 30 16 W 1022,9 42 0 0,0
18.06.2018 16:00:00 21,2 13,1 17 9 36 20 WSW 1022,7 37 0 0,0
18.06.2018 15:00:00 21,6 13,0 18 10 31 17 WSW 1022,7 19 0 0,0
18.06.2018 14:00:00 21,0 12,4 14 8 29 16 WSW 1022,6 48 1 0,0
18.06.2018 13:00:00 20,5 11,7 14 7 26 14 WSW 1023,0 20 3 0,0
18.06.2018 12:00:00 20,2 11,4 14 7 27 14 WSW 1023,0 42 17 0,0
18.06.2018 11:00:00 19,3 11,3 15 8 26 14 W 1023,0 38 39 0,0
18.06.2018 10:00:00 19,1 11,4 15 8 24 13 SW 1022,8 27 51 0,0
18.06.2018 09:00:00 17,1 12,2 13 7 21 12 SW 1022,8 34 44 0,0
18.06.2018 08:00:00 15,0 11,8 13 7 20 11 SSW 1022,8 20 49 0,0
18.06.2018 07:00:00 13,8 11,5 6 4 16 9 S 1023,0 24 60 0,0
18.06.2018 06:00:00 12,3 10,9 12 7 16 9 S 1022,6 20 1 0,0
18.06.2018 05:00:00 11,9 10,5 14 7 16 9 SSE 1022,6 22 0 0,0
18.06.2018 04:00:00 12,5 10,9 14 8 16 9 S 1022,5 23 0 0,0
18.06.2018 03:00:00 12,9 11,0 14 8 15 8 SSE 1022,7 30 0 0,0
18.06.2018 02:00:00 14,3 11,1 9 5 10 6 S 1022,3 42 0 0,0
18.06.2018 01:00:00 13,9 9,9 5 3 6 3 SSW 1022,3 46 0 0,0
18.06.2018 00:00:00 15,4 10,8 3 1 7 4 SW 1022,2 54 0 0,0
17.06.2018 23:00:00 16,0 10,7 4 2 10 5 WNW 1021,6 53 0 0,0
17.06.2018 22:00:00 16,4 10,9 7 4 11 6 WNW 1021,3 47 0 0,0
17.06.2018 21:00:00 17,0 11,5 9 5 24 13 NW 1021,1 58 0 0,0
17.06.2018 20:00:00 17,9 11,5 13 7 33 18 WNW 1020,8 43 6 0,0
17.06.2018 19:00:00 19,5 9,9 18 10 37 20 WNW 1020,1 40 41 0,0
17.06.2018 18:00:00 19,5 10,8 19 11 32 18 W 1019,9 20 32 0,0
17.06.2018 17:00:00 18,8 12,1 19 10 31 17 WNW 1019,9 43 0 0,0
17.06.2018 16:00:00 19,1 11,4 19 11 35 19 W 1019,6 41 0 0,0
17.06.2018 15:00:00 20,1 10,5 21 11 36 19 W 1019,3 31 22 0,0
17.06.2018 14:00:00 20,4 12,4 22 12 35 19 WNW 1019,1 19 10 0,0
17.06.2018 13:00:00 20,8 12,0 22 12 33 18 WSW 1018,8 20 3 0,0
17.06.2018 12:00:00 20,0 11,0 19 10 40 22 W 1018,8 38 34 0,0
17.06.2018 11:00:00 19,8 11,6 18 10 31 17 W 1018,8 36 33 0,0
17.06.2018 10:00:00 19,6 11,1 13 7 26 14 W 1018,7 20 60 0,0
17.06.2018 09:00:00 18,1 12,8 11 6 18 10 SW 1018,8 31 55 0,0
17.06.2018 08:00:00 16,0 13,3 6 3 13 7 SW 1018,8 27 10 0,0
17.06.2018 07:00:00 14,4 12,6 10 6 14 7 S 1018,8 15 0 0,0
17.06.2018 06:00:00 14,4 12,4 10 5 13 7 SSW 1018,5 16 0 0,0
17.06.2018 05:00:00 14,0 12,2 7 4 13 7 S 1018,3 19 0 0,0
17.06.2018 04:00:00 13,6 12,0 11 6 13 7 SSW 1018,3 19 0 0,0
17.06.2018 03:00:00 13,6 11,8 8 5 10 6 S 1018,0 18 0 0,0
17.06.2018 02:00:00 14,1 11,8 5 3 7 4 S 1017,8 16 0 0,0
17.06.2018 01:00:00 15,6 11,8 4 2 10 5 WSW 1017,4 41 0 0,0
17.06.2018 00:00:00 16,4 12,7 5 3 12 7 WNW 1017,4 44 0 0,0
16.06.2018 23:00:00 17,0 12,5 8 5 19 10 WNW 1017,2 47 0 0,0
16.06.2018 22:00:00 18,4 13,3 11 6 19 10 W 1016,5 19 12 0,0
16.06.2018 21:00:00 20,3 14,2 11 6 27 15 W 1015,8 27 22 0,0
16.06.2018 20:00:00 20,7 13,9 19 10 36 19 W 1015,5 30 7 0,0
16.06.2018 19:00:00 21,8 14,4 20 11 30 16 WNW 1015,1 25 3 0,0
16.06.2018 18:00:00 22,5 14,9 21 11 34 19 W 1014,8 39 15 0,0
16.06.2018 17:00:00 24,3 12,9 12 6 26 14 WSW 1014,5 48 6 0,0
16.06.2018 16:00:00 25,1 12,7 8 4 24 13 S 1014,4 18 34 0,0
16.06.2018 15:00:00 24,4 12,7 8 5 19 11 WSW 1014,9 32 26 0,0
16.06.2018 14:00:00 24,3 11,6 5 3 18 10 S 1015,2 20 36 0,0
16.06.2018 13:00:00 23,3 11,0 5 3 17 9 WSW 1015,5 22 35 0,0
16.06.2018 12:00:00 23,3 12,9 6 4 17 9 SE 1015,6 28 57 0,0
16.06.2018 11:00:00 22,7 14,3 4 2 14 8 WNW 1015,8 19 51 0,0
16.06.2018 10:00:00 20,9 13,8 6 3 12 7 SSW 1016,0 37 54 0,0
16.06.2018 09:00:00 18,2 15,3 6 3 10 5 SSE 1016,4 10 45 0,0
16.06.2018 08:00:00 14,4 13,6 4 2 16 9 W 1016,8 1,8 11 0,0
16.06.2018 07:00:00 14,8 14,0 13 7 18 10 SE 1016,3 6 53 0,0
16.06.2018 06:00:00 14,1 13,3 3 1 9 5 WNW 1016,4 8 1 0,0
16.06.2018 05:00:00 12,8 11,7 6 4 8 5 SW 1016,7 8 0 0,0
16.06.2018 04:00:00 13,9 12,1 3 2 10 5 SE 1016,5 11 0 0,0
16.06.2018 03:00:00 14,2 11,7 3 1 8 4 ESE 1016,6 9 0 0,0
16.06.2018 02:00:00 16,2 13,5 6 3 10 5 S 1016,9 12 0 0,0
16.06.2018 01:00:00 15,8 13,3 5 3 14 8 SSW 1016,9 21 0 0,0
16.06.2018 00:00:00 15,9 13,2 13 7 14 8 SSE 1016,7 29 0 0,0
15.06.2018 23:00:00 16,8 13,1 11 6 13 7 SE 1016,8 30 0 0,0
15.06.2018 22:00:00 17,2 13,3 10 5 11 6 SE 1016,6 15 4 0,0
15.06.2018 21:00:00 20,0 14,4 7 4 10 6 SE 1016,3 47 38 0,0
15.06.2018 20:00:00 21,0 13,4 9 5 15 8 SE 1016,3 20 30 0,0
15.06.2018 19:00:00 21,1 13,8 8 5 14 8 SE 1016,3 19 0 0,0
15.06.2018 18:00:00 21,7 12,5 4 2 10 5 ESE 1016,2 48 0 0,0
15.06.2018 17:00:00 22,3 12,8 2 1 10 5 W 1016,1 19 4 0,0
15.06.2018 16:00:00 22,3 13,4 4 2 16 9 SSW 1016,4 37 8 0,0
15.06.2018 15:00:00 22,9 14,7 8 4 17 9 S 1016,4 19 54 0,0
15.06.2018 14:00:00 20,7 13,9 7 4 15 8 ENE 1017,0 20 2 0,0
15.06.2018 13:00:00 19,5 13,4 4 2 13 7 NNE 1017,3 20 0 0,0
15.06.2018 12:00:00 18,9 13,7 6 3 16 9 N 1017,5 19 0 0,0
15.06.2018 11:00:00 18,9 14,2 5 3 12 6 W 1017,4 19 13 0,0
15.06.2018 10:00:00 17,6 12,9 4 2 9 5 ESE 1017,6 19 0 0,0
15.06.2018 09:00:00 16,1 13,9 4 2 13 7 WNW 1017,8 16 1 0,0
15.06.2018 08:00:00 15,1 13,8 4 2 11 6 WSW 1017,6 15 0 0,0
15.06.2018 07:00:00 14,2 13,4 10 6 16 9 SSE 1017,2 9 0 0,0
15.06.2018 06:00:00 13,9 13,3 11 6 16 9 SSE 1017,1 8 0 0,0
15.06.2018 05:00:00 14,0 13,2 10 5 15 8 SSE 1017,2 8 0 0,0
15.06.2018 04:00:00 14,0 13,5 10 5 14 8 S 1017,2 7 0 0,0
15.06.2018 03:00:00 14,0 13,2 8 4 11 6 SSE 1017,5 8 0 0,0
15.06.2018 02:00:00 14,2 13,2 9 5 12 7 ESE 1017,9 10 0 0,0
15.06.2018 01:00:00 14,5 13,5 8 5 10 6 ESE 1018,1 9 0 0,0
15.06.2018 00:00:00 14,6 11,7 3 1 6 3 SE 1018,3 18 0 0,0
14.06.2018 23:00:00 14,7 13,1 4 2 8 4 NNW 1018,3 19 0 0,0
14.06.2018 22:00:00 14,6 13,3 6 3 12 7 NW 1017,9 17 0 0,6
14.06.2018 21:00:00 14,7 13,6 6 4 27 15 NW 1017,6 7 0 1,6
14.06.2018 20:00:00 17,2 11,9 15 8 35 19 WNW 1016,4 31 0 0,0
14.06.2018 19:00:00 19,0 11,1 10 5 16 8 W 1015,8 57 0 0,0
14.06.2018 18:00:00 19,7 10,1 13 7 21 11 W 1015,9 36 28 0,0
14.06.2018 17:00:00 20,0 9,8 11 6 16 9 WNW 1015,7 20 0 0,0
14.06.2018 16:00:00 20,1 8,7 6 3 20 11 S 1015,6 37 13 0,0
14.06.2018 15:00:00 20,9 9,5 5 3 20 11 WNW 1015,9 18 29 0,0
14.06.2018 14:00:00 20,4 9,0 6 3 17 9 NW 1016,3 17 47 0,0
14.06.2018 13:00:00 19,4 9,0 6 4 16 9 NE 1016,8 10 33 0,0
14.06.2018 12:00:00 18,4 9,2 4 2 13 7 N 1017,0 19 36 0,0
14.06.2018 11:00:00 16,8 8,0 3 2 10 5 S 1017,2 19 0 0,0

tt = temperature
td = dewpoint
ff = wind speed
fx = gusts
dd = wind direction
ppp = reduced air pressure
vv = visibility
sd = sunshine duration
rr = precipitation

Next stations